Flag for Ukraine Weather past 2 weeks in Chernobyl, Ukraine

Now
77 °F

Passing clouds.


Feels Like: 78 °F
Forecast: 55 / 78 °F
Wind: 6 mph from West

Location: Hostomel

Current Time: Sep 1, 2014 at 11:51:24 AM

Latest Report: Sep 1, 2014 at 11:00 AM


Visibility: N/A

Pressure: 30.01 "Hg

Humidity: 34%

Dew point: 46 °F

Location of ChernobylLocation

Historic Weather in Chernobyl — Graph

°F

Chernobyl temperature yesterday

Maximum temperature yesterday: 75 °F (at 12:00 PM)
Minimum temperature yesterday: 50 °F (at 6:00 AM)
Average temperature yesterday: 64 °F

Past Weeks' High & Low Weather Summary

 TemperatureHumidityPressure
High84 °F (Aug 20, 2:00 PM)100% (Aug 27, 2:00 AM)30.12 "Hg (Aug 27, 2:00 AM)
Low46 °F (Aug 23, 5:30 AM)25% (Aug 20, 2:00 PM)29.71 "Hg (Aug 24, 9:00 PM)
Average63 °F64%29.95 "Hg
* Reported Aug 17 10:00 AM — Sep 1 10:30 AM, Chernobyl, Weather by CustomWeather, © 2014

Note: Actual official high and low records may vary slightly from our data, if they occured in-between our weather recording intervals... More about our weather records

Advertising

Chernobyl weather history for previous 24 hours

 ConditionsComfort  
Time TempWeatherWind HumidityBarometerVisibility
10:30 AM
Sep 1
75 °FPassing clouds.6 mph44%29.98 "HgN/A
10:00 AM72 °FPassing clouds.6 mph50%29.98 "HgN/A
9:30 AM68 °FSunny.3 mph60%29.98 "Hg10 mi
9:00 AM66 °FSunny.3 mph60%29.98 "Hg10 mi
8:00 AM63 °FClear.3 mph83%29.98 "Hg5 mi
7:00 AM59 °FFog.1 mph88%29.98 "Hg2 mi
6:00 AM59 °FCool.1 mph94%29.98 "Hg2 mi
5:00 AM59 °FCool.3 mph94%29.98 "Hg3 mi
4:00 AM59 °FCool.3 mph94%29.98 "Hg4 mi
3:00 AM59 °FCool.No wind94%29.98 "Hg4 mi
2:00 AM59 °FCool.No wind94%29.98 "Hg3 mi
1:00 AM61 °FCool.3 mph94%29.98 "HgN/A
12:00 AM61 °FCool.6 mph88%29.98 "HgN/A
11:00 PM
Aug 31
61 °FCool.3 mph83%29.98 "HgN/A
10:00 PM64 °FMild.3 mph73%29.98 "HgN/A
9:00 PM66 °FMild.3 mph73%29.98 "HgN/A
8:00 PM68 °FMild.1 mph69%29.98 "HgN/A
7:00 PM70 °FMild.3 mph60%29.98 "HgN/A
6:00 PM73 °FMild.3 mph50%29.98 "HgN/A
5:00 PM72 °FScattered showers. Scattered clouds.6 mph57%29.98 "HgN/A
4:00 PM73 °FSprinkles. Passing clouds.6 mph47%30.01 "HgN/A
3:00 PM70 °FHeavy rain. Partly sunny.10 mph60%30.01 "HgN/A
2:00 PM75 °FRain showers. Passing clouds.10 mph41%30.01 "HgN/A
1:00 PM75 °FMild.10 mph39%30.01 "HgN/A
12:00 PM75 °FMild.8 mph34%30.01 "HgN/A
11:00 AM73 °FMild.10 mph36%30.01 "HgN/A
Weather by CustomWeather, © 2014

See weather overviewHow to use our weather pages